Overview Statistics Trail Chart Weather Telemetry Raw packets
 

This is the latest recevied weather packets stored in our database for station/object OH6GKW. If no packets are shown the sender has not sent any weather packets the latest 10 day(s).

<< 16 17 18 19 20 21 22 >>
Time Temp. Humidity Pressure Rain* Wind** Luminosity Snow
1788541739 13.33° C 98% 994.2 hPa 2.79 mm - 35 W/m² -
1788541435 13.33° C 98% 994.2 hPa 2.79 mm - 30 W/m² -
1788541130 13.89° C 98% 994.3 hPa 2.79 mm - 21 W/m² -
1788540823 13.89° C 98% 994.3 hPa 2.79 mm - 37 W/m² -
1788540515 13.89° C 96% 994.3 hPa 2.79 mm - 58 W/m² -
1788540226 13.89° C 94% 994.3 hPa 2.29 mm - 90 W/m² -
1788539916 14.44° C 93% 994.3 hPa 1.52 mm - 107 W/m² -
1788539611 14.44° C 92% 994.3 hPa 0.76 mm - 153 W/m² -
1788539336 14.44° C 89% 994.2 hPa 0.25 mm - 187 W/m² -
1788539035 14.44° C 88% 994.2 hPa 0 mm - 116 W/m² -
1788538725 14.44° C 88% 994.2 hPa 0 mm - 132 W/m² -
1788538421 14.44° C 88% 994.3 hPa 0 mm - 204 W/m² -
1788538113 14.44° C 89% 994.3 hPa 0 mm - 190 W/m² -
1788537832 14.44° C 89% 994.3 hPa 0 mm - 181 W/m² -
1788537518 14.44° C 88% 994.4 hPa 0 mm - 69 W/m² -
1788537211 14.44° C 88% 994.4 hPa 0 mm - 53 W/m² -
1788536918 14.44° C 88% 994.4 hPa 0 mm - 49 W/m² -
1788536610 14.44° C 87% 994.4 hPa 0 mm - 67 W/m² -
1788536333 14.44° C 85% 994.4 hPa 0 mm - 44 W/m² -
1788536028 15° C 85% 994.4 hPa 0 mm - 53 W/m² -
1788535717 15° C 85% 994.4 hPa 0 mm - 58 W/m² -
1788535429 15° C 85% 994.4 hPa 0 mm - 65 W/m² -
1788535120 15.56° C 85% 994.4 hPa 0 mm - 158 W/m² -
1788534811 15° C 87% 994.5 hPa 0 mm - 318 W/m² -
1788534523 15° C 86% 994.5 hPa 0 mm - 155 W/m² -

* Rain since midnight (hover to see other rain measurements)
** Current wind speed in m/s (hover to see current wind gust speed)